#timestamp,LO_Frequency,Hit,StdDev 
1539151215.2,286046997.0,Y
1539151235.8,286046999.4,P
1539151255.6,286046999.6,N
1539151275.5,286046997.0,P
1539151295.3,286046996.9,Y
1539151315.1,286046999.4,P
1539151335.9,286046998.5,P
1539151355.7,286046998.7,P
1539151375.6,286046999.0,Y
1539151395.4,286047000.5,P
1539151415.2,286046998.1,N
1539151435.1,286047000.6,N
1539151436.0,286047000.6,N
1539151455.8,286047002.7,N
1539151475.7,286047000.0,N
1539151495.5,286047001.1,N
1539151515.3,286047002.7,N
1539151535.2,286047002.6,N
1539151555.9,286047000.9,N
1539151575.7,286047001.0,N
1539151595.6,286047000.8,N
1539151615.4,286046998.6,N
1539151635.3,286046999.2,N
1539151655.1,286046999.1,N
1539151675.5,286046998.8,N
1539151695.4,286046996.6,N
1539151715.2,286046999.0,N
1539151735.0,286046999.3,N
1539151735.9,286046999.3,N
1539151755.8,286046999.5,N
1539151775.6,286046998.9,N
1539151795.4,286046999.6,N
1539151815.3,286046999.4,N
1539151835.1,286046996.5,N
1539151855.9,286046997.1,N
1539151875.7,286046997.7,N
1539151895.5,286046997.2,N
1539151915.4,286046997.6,N
1539151935.2,286046999.5,N
1539151955.0,286046996.6,N
1539151955.9,286046996.6,N
1539151975.8,286046997.4,N
1539151995.6,286046996.8,N
1539152015.5,286046996.8,N
1539152035.3,286046999.6,N
1539152055.1,286046996.5,N
1539152075.9,286046999.5,N
1539152095.7,286046999.4,N
1539152115.5,286046997.5,N
1539152135.4,286046994.9,Y
1539152155.2,286046998.9,P
1539152175.1,286046999.5,N
1539152176.0,286046999.5,N
1539152195.8,286046999.6,N
1539152215.6,286046998.8,N
1539152235.5,286046997.1,Y
1539152255.3,286046998.9,P
1539152275.2,286046998.9,P
1539152295.9,286046999.2,P
1539152315.3,286046999.3,Y
1539152335.1,286047000.7,P
1539152336.0,286047000.7,N
1539152355.8,286046998.3,N
1539152375.7,286046998.2,N
1539152395.5,286047001.0,N
1539152415.3,286047001.0,N
1539152435.2,286046998.1,N
1539152455.0,286047000.7,N
1539152455.9,286047000.7,N
1539152475.8,286047001.1,N
1539152495.6,286047002.2,N
1539152515.4,286047000.4,N
1539152535.3,286047000.6,N
1539152555.1,286047000.3,N
1539152575.9,286047002.7,N
1539152595.7,286047002.7,N
1539152615.5,286047000.7,N
1539152635.4,286047000.9,N
1539152655.2,286047000.7,N
1539152675.0,286046998.2,N
1539152676.0,286046998.2,N
1539152695.8,286047000.5,N
1539152715.6,286047000.3,N
1539152735.5,286047002.4,N
1539152755.3,286047000.6,N
1539152775.1,286046998.1,N
1539152795.9,286047001.1,N
1539152815.7,286047000.5,N
1539152835.6,286046998.9,N
1539152855.4,286046996.6,N
1539152875.2,286047000.6,N
1539152895.1,286046998.7,N
1539152896.0,286046998.7,N
1539152915.8,286046998.3,N
1539152935.6,286046998.5,N
1539152955.5,286046999.6,N
1539152975.3,286046999.5,N
1539152995.2,286046998.2,N
1539153015.9,286046998.8,N
1539153035.7,286046996.6,N
1539153055.6,286046997.2,N
1539153075.4,286046995.4,N
1539153095.2,286046997.7,N
1539153115.1,286046996.7,N
1539153116.0,286046996.7,N
1539153135.8,286046996.5,N
1539153155.7,286046997.5,N
1539153175.5,286046997.7,N
1539153195.3,286046997.0,N
1539153215.2,286046999.2,N
1539153235.0,286046998.6,N
1539153235.9,286046998.6,N
1539153255.7,286046996.6,N
1539153275.6,286046997.3,N
1539153295.4,286046997.2,N
1539153315.3,286046998.6,N
1539153335.1,286046998.9,N
1539153355.8,286046997.8,N
1539153375.7,286046996.5,Y
1539153395.5,286047001.2,P
1539153415.4,286047000.9,N
1539153435.2,286047000.8,N
1539153455.0,286047002.8,N
1539153455.9,286047002.8,N
1539153475.8,286047000.5,N
1539153495.6,286047002.1,N
1539153515.4,286047002.6,N
1539153535.3,286047000.2,N
1539153555.1,286047000.4,N
1539153575.9,286047000.5,N
1539153595.7,286047000.0,N
1539153615.5,286046999.9,N
1539153635.4,286046998.2,N
1539153655.2,286046998.2,N
1539153675.0,286046998.6,N
1539153675.9,286046998.6,N
1539153695.8,286046999.0,N
1539153715.6,286047000.7,N
1539153735.5,286047000.1,N
1539153755.3,286047000.0,N
1539153775.1,286046998.1,N
1539153795.9,286046999.3,N
1539153815.7,286046998.3,N
1539153835.5,286046998.7,N
1539153855.4,286046998.2,N
1539153875.2,286047000.4,N
1539153895.1,286047000.3,N
1539153896.0,286047000.3,N
1539153915.8,286047000.6,N
1539153935.6,286047001.1,N
1539153955.5,286047000.3,N
1539153975.3,286047000.9,N
1539153995.2,286046999.0,N
1539154015.9,286046999.1,N
1539154035.7,286047001.2,N
1539154055.6,286047005.7,Y
1539154075.4,286047007.7,P
1539154095.3,286047012.6,P
1539154115.1,286047016.6,P
1539154116.0,286047016.6,N
1539154135.8,286047026.5,Y
1539154155.7,286047016.3,P
1539154175.5,286047011.4,P
1539154195.4,286047012.0,P
1539154215.2,286047007.3,Y
1539154235.0,286046992.0,P
1539154235.9,286046992.0,N
1539154255.6,286046991.4,N
1539154275.5,286046988.0,N
1539154295.3,286046986.6,N
1539154315.2,286046984.2,N
1539154335.9,286046982.4,N
1539154355.7,286046982.7,N
1539154375.6,286046980.8,N
1539154395.4,286046981.7,N
1539154415.3,286046979.5,N
1539154435.1,286046977.9,N
1539154436.0,286046977.9,N
1539154455.8,286046977.8,N
1539154475.7,286046978.4,N
1539154495.5,286046978.2,N
1539154515.3,286046978.7,N
1539154535.2,286046975.8,N
1539154555.0,286046976.9,N
1539154555.9,286046976.9,N
1539154575.8,286046976.4,N
1539154595.6,286046975.9,N
1539154615.4,286046978.4,N
1539154635.3,286046978.1,N
1539154655.1,286046977.8,N
1539154675.8,286046977.9,N
1539154695.7,286046978.3,N
1539154715.5,286046978.1,N
1539154735.4,286046976.2,Y
1539154755.2,286046993.5,P
1539154775.0,286046993.6,N
1539154775.9,286046993.6,N
1539154795.8,286046995.1,N
